Weather History for KJER - January, 2013

Change the Weather History Date:

Wednesday, January 23, 2013

  Actual Average Record
Temperature  
Mean Temperature 24 °F 27 °F  
Max Temperature 32 °F 34 °F 57 °F (1959)
Min Temperature 16 °F 20 °F -17 °F (1962)
Degree Days  
Heating Degree Days 41 38  
Month to date heating degree days 1173 892  
Since 1 July heating degree days 3452 3622  
Cooling Degree Days 0 0  
Month to date cooling degree days 0 0  
Year to date cooling degree days 0 0  
Moisture  
Dew Point 15 °F    
Average Humidity 69    
Maximum Humidity 75    
Minimum Humidity 62    
Precipitation  
Precipitation 0.00 in 0.02 in 0.64 in (1999)
Month to date precipitation 0.04 0.88  
Year to date precipitation 0.04 0.88  
Sea Level Pressure  
Sea Level Pressure 30.28 in    
Wind  
Wind Speed 20 mph (NE)    
Max Wind Speed 29 mph    
Max Gust Speed 35 mph    
Visibility 10 miles    
Events      
T = Trace of Precipitation, MM = Missing Value Source: NWS Daily Summary

Daily Weather History Graph

Daily Weather History Graph

Search for Another Location

Airport or City:

Trip Planner

Search our weather history database for the weather conditions in past years. The results will help you decide how hot, cold, wet, or windy it might be!

Date:

Astronomy

Jan. 23, 2013 Rise Set
Actual Time 8:00 AM MST 5:39 PM MST
Civil Twilight 7:29 AM MST 6:10 PM MST
Nautical Twilight 6:55 AM MST 6:44 PM MST
Astronomical Twilight 6:21 AM MST 7:18 PM MST
Moon 2:52 PM MST (1/23) 5:16 AM MST (1/23)
Length of Visible Light 10h 40m
Length of Day
9h 39m
Waxing Gibbous, 89% of the Moon is Illuminated
Jan 23
Waxing Gibbous
Jan 26
Full
Feb 3
Last Quarter
Feb 10
New
Feb 17
First Quarter

Hourly Weather History & Observations

Time (MST) Temp. Windchill Dew Point Humidity Pressure Visibility Wind Dir Wind Speed Gust Speed Precip Events Conditions
12:53 AM 19.0 °F 2.0 °F 9.0 °F 65% 30.34 in 10.0 mi ENE 23.0 mph 31.1 mph N/A   Clear
1:53 AM 19.9 °F 2.2 °F 9.0 °F 62% 30.30 in 10.0 mi ENE 26.5 mph 32.2 mph N/A   Clear
2:53 AM 19.0 °F 1.6 °F 9.0 °F 65% 30.33 in 10.0 mi NE 24.2 mph 29.9 mph N/A   Clear
3:53 AM 19.0 °F 2.4 °F 10.0 °F 68% 30.32 in 10.0 mi NE 21.9 mph 32.2 mph N/A   Clear
4:53 AM 19.0 °F 2.0 °F 10.0 °F 68% 30.32 in 10.0 mi NE 23.0 mph - N/A   Clear
5:53 AM 19.0 °F 2.4 °F 10.0 °F 68% 30.33 in 10.0 mi NE 21.9 mph - N/A   Clear
6:53 AM 17.1 °F 1.0 °F 9.0 °F 71% 30.32 in 10.0 mi NE 18.4 mph 28.8 mph N/A   Clear
7:53 AM 17.1 °F 1.0 °F 9.0 °F 71% 30.34 in 10.0 mi NE 18.4 mph - N/A   Clear
8:53 AM 18.0 °F 0.9 °F 10.0 °F 71% 30.32 in 10.0 mi NE 21.9 mph 28.8 mph N/A   Clear
9:53 AM 21.0 °F 4.3 °F 10.9 °F 65% 30.31 in 10.0 mi NE 24.2 mph - N/A   Clear
10:53 AM 21.9 °F 6.2 °F 12.0 °F 66% 30.34 in 10.0 mi NE 21.9 mph - N/A   Clear
11:53 AM 24.1 °F 11.0 °F 15.1 °F 69% 30.33 in 10.0 mi NE 16.1 mph 21.9 mph N/A   Clear
12:53 PM 26.1 °F 11.3 °F 17.1 °F 69% 30.27 in 10.0 mi NE 23.0 mph - N/A   Clear
1:53 PM 28.9 °F 17.3 °F 19.0 °F 67% 30.26 in 10.0 mi NE 16.1 mph 23.0 mph N/A   Clear
2:53 PM 30.0 °F 17.5 °F 19.9 °F 66% 30.25 in 10.0 mi NE 19.6 mph - N/A   Clear
3:53 PM 30.9 °F 19.4 °F 19.9 °F 64% 30.24 in 10.0 mi NE 17.3 mph - N/A   Clear
4:53 PM 28.9 °F 18.2 °F 21.0 °F 72% 30.22 in 10.0 mi ENE 13.8 mph - N/A   Clear
5:53 PM 28.0 °F 15.7 °F 21.0 °F 75% 30.23 in 10.0 mi NE 17.3 mph - N/A   Clear
6:53 PM 28.0 °F 15.3 °F 19.9 °F 72% 30.23 in 10.0 mi NE 18.4 mph - N/A   Scattered Clouds
7:53 PM 28.0 °F 13.6 °F 19.9 °F 72% 30.22 in 10.0 mi NNE 24.2 mph - N/A   Partly Cloudy
8:53 PM 28.0 °F 14.9 °F 19.9 °F 72% 30.25 in 10.0 mi NE 19.6 mph - N/A   Partly Cloudy
9:53 PM 27.0 °F 14.3 °F 19.0 °F 72% 30.23 in 10.0 mi NE 17.3 mph - N/A   Partly Cloudy
10:53 PM 28.9 °F 16.9 °F 19.0 °F 67% 30.23 in 10.0 mi NE 17.3 mph 24.2 mph N/A   Scattered Clouds
11:53 PM 28.0 °F 14.9 °F 19.0 °F 69% 30.22 in 10.0 mi NE 19.6 mph - N/A   Overcast